星链-35679(STARLINK-35679)

导读

STARLINK-35679是美国太空探索技术公司Starlink星链互联网卫星星座的一员,于2025年11月8日发射入轨。星链项目旨在为全球提供高速低延迟互联网服务,该卫星继承星链星座设计,依托近地轨道部署,补充完善星座组网覆盖能力,服务全球偏远地区及高需求网络场景,是美国构建星链卫星互联网网络的新增节点。

Basic Information
目录编号:
66408
目录名称:
STARLINK-35679
国际标识:
2025-257AE
轨道中心:
EARTH
卫星名称:
星链-35679
卫星全名:
星链-35679(STARLINK-35679)
卫星状态:
在轨 (已飞行217 天)
发射日期:
2025-11-08 UTC
国别 :
美国 (US)
星等 :
--
Orbit Information
数据来源 国际轨道数据 AOE轨道数据
星历时间 2026-06-12T12:42:00+0800
1天前
查看轨道信息
2026-06-08T23:00:00+0800
4天前
查看轨道信息
半长轴 6840.797km 6840.906km
偏心率 0.0001277 0.0001517
轨道倾角 53.158° 53.157°
近地点辐角 75.219° 86.690°
升交点赤经 136.566° 153.260°
平近点角 284.895° 337.753°
近地点 461.786km 461.731km
远地点 463.534km 463.807km
周期 93.847分钟 93.849分钟
每日圈数 15.344147 15.34378
Detailed Information
固有亮度:
5
最大亮度:
2.5
卫星平台:
Starlink V1.0
覆盖范围:
全球
运营商:
太空探索技术公司
运营商所在国:
美国
制造商(研发单位):
太空探索技术公司
制造商所在国:
美国
使用方式:
暂无
Satellite Introduction
Starlink 计划是 SpaceX 推出的全球卫星互联网项目,通过发射低轨道卫星,为全球尤其是偏远地区提供高速、低延迟的互联网服务。自 2019 年起,Starlink 已部署数千颗卫星,旨在缩小全球数字鸿沟,推动互联网普及。该项目还为军事、航空等行业提供通信支持,带来广泛经济效益。
2D Orbit Map
3D Orbit Map
Orbit Altitude Analysis Chart
Orbit Inclination Analysis Chart
Orbit Comprehensive Analysis Chart
View Comprehensive Chart